User: anonymous   Login
Location: Cluj-Napoca
(46.7712°N, 23.6236°E)
Time: 19:21:11
(UTC+02:00)
Language:

AIST 2D - Orbit

View from above orbital plane
View from above orbital plane
View from above satellite
View from above satellite

Ground track
Ground track

The orbit data is extracted from the following two-line orbital elements,

1 41465U 16026B   21337.17778818  .00005229  00000-0  14405-3 0  9993
2 41465  97.0821 215.3644 0012027 118.7820 359.2627 15.37488000313347
Epoch (UTC): 03 December 2021 04:16:00
Eccentricity: 0.0012027
inclination: 97.0821°
perigee height: 445 km
apogee height: 462 km
right ascension of ascending node: 215.3644°
argument of perigee: 118.7820°
revolutions per day: 15.37488000
mean anomaly at epoch: 359.2627°
orbit number at epoch: 31334

The dashed part of the orbit path shows where the satellite is in the earth's shadow,  

DLR